sat.trackr.live / text

‹ back to catalog

STARLINK-32482

NORAD 62141 · 2024-224C

PAYLOAD ACTIVE UNKNOWN

§ Identity

Operator
Country
US
Launch date
2024-11-30
Launch site
AFETR
Launch vehicle
Mass (kg)
RCS (m²)

Purposes: comms

External: N2YO · Heavens-Above · Gunter

§ Orbital elements

Epoch: 2026-05-25T04:49:27.506784Z

Period
94.27 min
Inclination
42.9974°
Eccentricity
0.0001159
Mean motion
15.27573429 rev/d
Perigee alt
482.3 km
Apogee alt
483.9 km
Semi-major
6,861.2 km
B*
5.0849e-4
RAAN
85.8218°
Arg perigee
263.9606°
Mean anomaly
96.1114°
Rev number
8,402

§ Raw data

STARLINK-324821 62141U 24224C   26145.20101281  .00013754  00000+0  50849-3 0  99992 62141  42.9974  85.8218 0001159 263.9606  96.1114 15.27573429 84022

JSON: /api/v1/satellites/62141 · /tle

For live sub-satellite position, see the globe view (requires WebGL).

§ Visibility from observer

Set your observer location to see the next 7 days of passes ≥ 10°. The values pass through the URL so the page stays shareable.

No JS? Fill the form by hand. The geolocation button needs JavaScript.